sat.trackr.live / text

‹ back to catalog

STARLINK-35814

NORAD 66576 · 2025-268V

PAYLOAD ACTIVE UNKNOWN

§ Identity

Operator
Country
US
Launch date
2025-11-21
Launch site
AFETR
Launch vehicle
Mass (kg)
RCS (m²)

Purposes: comms

External: N2YO · Heavens-Above · Gunter

§ Orbital elements

Epoch: 2026-05-24T18:24:46.926720Z

Period
94.27 min
Inclination
43.0025°
Eccentricity
0.0001537
Mean motion
15.27550444 rev/d
Perigee alt
482.1 km
Apogee alt
484.2 km
Semi-major
6,861.3 km
B*
4.9764e-4
RAAN
277.5221°
Arg perigee
271.3113°
Mean anomaly
88.7562°
Rev number
2,959

§ Raw data

STARLINK-358141 66576U 25268V   26144.76720980  .00013444  00000+0  49764-3 0  99972 66576  43.0025 277.5221 0001537 271.3113  88.7562 15.27550444 29594

JSON: /api/v1/satellites/66576 · /tle

For live sub-satellite position, see the globe view (requires WebGL).

§ Visibility from observer

Set your observer location to see the next 7 days of passes ≥ 10°. The values pass through the URL so the page stays shareable.

No JS? Fill the form by hand. The geolocation button needs JavaScript.